TimeCST,TemperatureF,Dew PointF,Humidity,Sea Level PressureIn,VisibilityMPH,Wind Direction,Wind SpeedMPH,Gust SpeedMPH,PrecipitationIn,Events,Conditions,WindDirDegrees,DateUTC
12:53 AM,37.9,33.1,83,30.40,10.0,Calm,Calm,-,N/A,,Partly Cloudy,0,2013-01-19 06:53:00
1:53 AM,37.0,32.0,82,30.38,6.0,Calm,Calm,-,N/A,,Haze,0,2013-01-19 07:53:00
2:53 AM,37.9,30.9,76,30.37,10.0,Calm,Calm,-,N/A,,Clear,0,2013-01-19 08:53:00
3:53 AM,35.1,30.9,85,30.36,10.0,NNE,4.6,-,N/A,,Clear,30,2013-01-19 09:53:00
4:53 AM,35.1,30.9,85,30.37,10.0,Calm,Calm,-,N/A,,Clear,0,2013-01-19 10:53:00
5:53 AM,37.0,30.9,79,30.37,10.0,Calm,Calm,-,N/A,,Mostly Cloudy,0,2013-01-19 11:53:00
6:53 AM,39.0,30.9,73,30.38,10.0,NE,3.5,-,N/A,,Partly Cloudy,50,2013-01-19 12:53:00
7:53 AM,42.1,32.0,67,30.40,10.0,NE,5.8,-,N/A,,Scattered Clouds,40,2013-01-19 13:53:00
8:53 AM,46.0,32.0,58,30.41,10.0,NE,6.9,-,N/A,,Scattered Clouds,50,2013-01-19 14:53:00
9:53 AM,51.1,33.1,50,30.41,10.0,East,6.9,-,N/A,,Mostly Cloudy,80,2013-01-19 15:53:00
10:53 AM,55.0,36.0,49,30.37,10.0,ENE,5.8,-,N/A,,Mostly Cloudy,60,2013-01-19 16:53:00
11:53 AM,59.0,39.0,48,30.33,10.0,East,3.5,-,N/A,,Mostly Cloudy,80,2013-01-19 17:53:00
12:53 PM,61.0,39.9,46,30.29,10.0,Calm,Calm,-,N/A,,Mostly Cloudy,0,2013-01-19 18:53:00
1:53 PM,62.1,41.0,46,30.27,10.0,NNW,6.9,-,N/A,,Overcast,340,2013-01-19 19:53:00
2:53 PM,63.0,43.0,48,30.25,10.0,North,5.8,-,N/A,,Partly Cloudy,360,2013-01-19 20:53:00
3:53 PM,62.1,43.0,50,30.25,10.0,North,4.6,-,N/A,,Clear,10,2013-01-19 21:53:00
4:53 PM,59.0,44.1,58,30.25,10.0,Calm,Calm,-,N/A,,Clear,0,2013-01-19 22:53:00
5:53 PM,55.0,45.0,69,30.26,10.0,Calm,Calm,-,N/A,,Clear,0,2013-01-19 23:53:00
6:53 PM,54.0,45.0,72,30.27,10.0,Calm,Calm,-,N/A,,Partly Cloudy,0,2013-01-20 00:53:00
7:53 PM,53.1,46.0,77,30.27,10.0,Calm,Calm,-,N/A,,Mostly Cloudy,0,2013-01-20 01:53:00
8:53 PM,48.9,45.0,86,30.26,10.0,Calm,Calm,-,N/A,,Partly Cloudy,0,2013-01-20 02:53:00
9:53 PM,46.0,44.1,93,30.26,10.0,NW,3.5,-,N/A,,Scattered Clouds,310,2013-01-20 03:53:00
10:53 PM,48.9,45.0,86,30.24,10.0,Calm,Calm,-,N/A,,Overcast,0,2013-01-20 04:53:00
11:53 PM,50.0,46.0,86,30.23,10.0,Calm,Calm,-,N/A,,Overcast,0,2013-01-20 05:53:00